Location: Rancho Del Sol Observatory
(38.7214°N, 120.6350°W)
Time: 12:53:05
(UTC-08:00)

A-11 Canister half - Pass Details

Date: 28 January 2020
Orbit: 1517 x 1683 km, 47.2° (Epoch: 22 February)

Event Time Altitude Azimuth Distance (km) Brightness Sun altitude
Exits shadow 01:52:48 13° 72° (ENE) 3,472 11.1 -60.6°
Drops below altitude 10° 01:53:30 10° 74° (ENE) 3,680 11.3 -60.5°
Sets 01:56:41 0° 79° (E) 4,669 11.9 -60.0°
